Regional Weather Roundup
Issued by NWS

Home | Current Version | Previous Version | Graphics & Text | Print | Product List | Glossary On
Versions: 1 2 3 4 5 6 7 8 9 10 11 12 13 14 15 16 17 18 19 20 21 22 23 24 25 26 27
000
ASUS45 KCYS 281610
RWRWY

WYOMING REGIONAL WEATHER ROUNDUP
NATIONAL WEATHER SERVICE CHEYENNE WY
1000 AM MDT SUN AUG 28 2016

NOTE:  "FAIR" INDICATES FEW OR NO CLOUDS BELOW 12,000 FEET
WITH NO SIGNIFICANT WEATHER AND/OR OBSTRUCTIONS TO VISIBILITY.

WYZ001-281700-
YELLOWSTONE NATIONAL PARK

CITY           SKY/WX    TMP DP  RH WIND       PRES   REMARKS
LK YELLOWSTONE   N/A     54  39  57 VRB3      30.35R
W YELLOWSTONE  NOT AVBL

$$
WYZ002>013-054>058-071-098>099-281700-
NORTHERN WYOMING

CITY           SKY/WX    TMP DP  RH WIND       PRES   REMARKS
JACKSON        SUNNY     54  27  35 CALM      30.29R
CODY           FAIR      72  36  26 W5        30.12R
GREYBULL       FAIR      66  34  30 CALM      30.06S
WORLAND        FAIR      64  39  39 SW3       30.08R
SHERIDAN       FAIR      77  46  33 CALM      30.02R
BUFFALO        FAIR      82  26  13 N13       30.09R
GILLETTE       FAIR      76  32  20 S3        30.04S
HULETT         FAIR      73  45  35 W5        30.06R
NEWCASTLE      FAIR      70  39  32 SE6       30.07S

$$
WYZ014>020-022>026-101>103-281700-
CENTRAL WYOMING

CITY           SKY/WX    TMP DP  RH WIND       PRES   REMARKS
BIG PINEY      FAIR      57  30  35 VRB3      30.33R
PINEDALE       FAIR      59  30  33 E3        30.34R
DUBOIS         FAIR      68  25  19 NW12      30.28R
LANDER         FAIR      72  34  24 E3        30.16S
RIVERTON       FAIR      72  27  18 W8        30.17S
CASPER         FAIR      72  36  26 SW17G28   30.16S
DOUGLAS        FAIR      74  38  27 NW6       30.13F

$$
WYZ021-027>030-104>119-281700-
SOUTHERN WYOMING

CITY           SKY/WX    TMP DP  RH WIND       PRES   REMARKS
EVANSTON       FAIR      66  31  27 SW8       30.33R
FORT BRIDGER   FAIR      70  28  20 W7        30.35S
ROCK SPRINGS   FAIR      66  28  24 CALM      30.31R
DIXON          FAIR      66  37  34 SE3       30.33F
RAWLINS        FAIR      70  33  25 SW17G24   30.29S
SARATOGA       FAIR      68  36  30 E14G20    30.32S
LARAMIE        FAIR      66  35  31 SE6       30.31S
CHEYENNE       FAIR      76  31  19 W3        30.22S
TORRINGTON     FAIR      74  43  32 CALM      30.09S
PINE BLUFFS    FAIR      73  41  31 S3        30.18S

$$




USA.gov is the U.S. government's official web portal to all federal, state and local government web resources and services.